Regional Weather Roundup
Issued by NWS Tiyan, Guam

Home | Current Version | Previous Version | Text Only | Print | Product List | Glossary On
Versions: 1 2 3 4 5 6 7 8 9 10 11 12 13 14 15 16 17 18 19 20 21 22 23 24 25 26 27
000
ASGM40 PGUM 280512
RWRGUM
WEATHER ROUNDUP FOR THE MARIANAS
NATIONAL WEATHER SERVICE TIYAN GU
300 PM CHST TUE MAR 28 2017

GUZ001>004-280600-
MARIANA ISLANDS-

CITY           SKY/WX    TMP DP  RH WIND       PRES   REMARKS
GUAM AIRPORT   MOSUNNY   88  73  62 NE22G30   29.89F HX  96
ANDERSEN AFB   SUNNY     84  75  74 NE20      29.90F HX  92
ROTA AIRPORT   PTSUNNY   81  75  83 NE15      29.91F
TINIAN AP      PTSUNNY   84  73  70 NE21      29.90F HX  91
SAIPAN AP      MOSUNNY   84  73  70 NE16      29.90F HX  91

$$





USA.gov is the U.S. government's official web portal to all federal, state and local government web resources and services.